sat.trackr.live / text

‹ back to catalog

QZS-1R (QZSS/PRN 196)

NORAD 49336 · 2021-096A

PAYLOAD ACTIVE UNKNOWN

§ Identity

Operator
Country
JPN
Launch date
2021-10-26
Launch site
TANSC
Launch vehicle
Mass (kg)
RCS (m²)

Purposes: comms, nav

External: N2YO · Heavens-Above · Gunter

§ Orbital elements

Epoch: 2026-09-19T09:00:52.683264Z

Period
1,435.89 min
Inclination
37.6559°
Eccentricity
0.0744215
Mean motion
1.00286329 rev/d
Perigee alt
32,644.9 km
Apogee alt
38,920.2 km
Semi-major
42,160.7 km
B*
0.0000e+0
RAAN
78.1899°
Arg perigee
269.9680°
Mean anomaly
279.7267°
Rev number
1,795

§ Raw data

QZS-1R (QZSS/PRN 196)1 49336U 21096A   26262.37560976 -.00000243  00000+0  00000+0 0  99922 49336  37.6559  78.1899 0744215 269.9680 279.7267  1.00286329 17950

JSON: /api/v1/satellites/49336 · /tle

For live sub-satellite position, see the globe view (requires WebGL).

§ Visibility from observer

Set your observer location to see the next 7 days of passes ≥ 10°. The values pass through the URL so the page stays shareable.

No JS? Fill the form by hand. The geolocation button needs JavaScript.